Tracking 19832 objects as of 25-Aug-2019
HD Live streaming from Space Station
objects crossing your sky now

COSMOS 2251 DEB

Track COSMOS 2251 DEB now!
10-day predictions


NORAD ID: 35717
Int'l Code: 1993-036AQN
Perigee: 751.9 km
Apogee: 887.2 km
Inclination: 74.2 °
Period: 101.1 minutes
Semi major axis: 7190 km
RCS: 0.003 m2 (small)
Launch date: June 16, 1993
Source: Commonwealth of Independent States (former USSR) (CIS)
Launch site: PLESETSK MISSILE AND SPACE COMPLEX (PKMTR)

Note: This is SATELLITE DEBRIS
aabbcc
Your satellite tracking list
Your tracking list is empty




NASA's NSSDC Master Catalog

Two Line Element Set (TLE):
1 35717U 93036AQN 19234.14777757 +.00000407 +00000-0 +18024-3 0  9997
2 35717 074.1664 041.0412 0094074 172.0450 188.2216 14.23828405525566
Source of the keplerian elements: AFSPC